Regional Weather Roundup
Issued by NWS Glasgow, MT

Home | Current Version | Previous Version | Text Only | Print | Product List | Glossary On
Versions: 1 2 3 4 5 6 7 8 9 10 11 12 13 14 15 16 17 18 19 20 21 22 23 24 25 26 27 28 29 30 31 32 33 34 35 36 37 38 39 40 41 42 43 44 45 46 47 48
000
ASUS45 KGGW 270515
RWRGGW
HOURLY WEATHER ROUNDUP FOR NORTHEAST MONTANA
NATIONAL WEATHER SERVICE GLASGOW MONTANA
1000 PM MST MON JAN 26 2015

NOTE: "FAIR" INDICATES FEW OR NO CLOUDS BELOW 12,000 FEET WITH NO
SIGNIFICANT WEATHER AND/OR OBSTRUCTIONS TO VISISBILITY.

NORTHEAST MONTANA


CITY           SKY/WX    TMP DP  RH WIND       PRES   REMARKS
GLASGOW        CLEAR     35  31  85 SE8       29.84F
PLENTYWOOD       N/A     34  32  92 E3          N/A
WOLF POINT     CLEAR     30  27  88 CALM      29.86F
JORDAN           N/A     31  29  92 CALM      29.86F
WINNETT          N/A     41  30  65 W3          N/A
SIDNEY         PTCLDY    30  28  93 CALM      29.90F
GLENDIVE       CLEAR     37  32  81 CALM      29.90S
MALTA            N/A     32  32 100 E1          N/A
SCOBEY           N/A     32  28  86 CALM      29.84S

FORT PECK REPORTS


CITY           SKY/WX    TMP DP  RH WIND       PRES   REMARKS
FORT PECK        N/A     39  33  79 SE7         N/A
THE PINES        N/A     39  32  76 S3          N/A

SOUTHEAST MONTANA


CITY           SKY/WX    TMP DP  RH WIND       PRES   REMARKS
BILLINGS       PTCLDY    51  27  39 SW20      30.00R
MILES CITY     CLEAR     41  32  70 S9        29.91R
BAKER          CLEAR     32  28  85 E3        29.93S
LIVINGSTON     CLEAR     57  25  29 SW30G44   30.04S

CENTRAL MONTANA


CITY           SKY/WX    TMP DP  RH WIND       PRES   REMARKS
HAVRE          PTCLDY    45  33  63 SW16      29.82F
LEWISTOWN      PTCLDY    49  29  46 SW15      29.94R
GREAT FALLS    PTCLDY    50  29  44 SW15      29.93S
CUT BANK       MOCLDY    50  25  37 SW15      29.87
HELENA         CLEAR     35  29  78 CALM      30.03S
BUTTE          CLEAR     33  26  75 VRB3      30.12R
BOZEMAN        CLEAR     33  27  78 SE5       30.09S

WESTERN MONTANA


CITY           SKY/WX    TMP DP  RH WIND       PRES   REMARKS
MISSOULA       CLEAR     32  28  85 CALM      30.07S
KALISPELL      NOT AVBL

NORTH DAKOTA


CITY           SKY/WX    TMP DP  RH WIND       PRES   REMARKS
WILLISTON      CLEAR     29  28  96 CALM      29.88S
DICKINSON      CLEAR     36  31  82 S10       29.89F
MINOT          CLEAR     31  28  89 S6        29.90F
BISMARCK       CLEAR     31  29  92 E5        29.97F

SOUTHERN SASKATCHEWAN


CITY           SKY/WX    TMP DP  RH WIND       PRES   REMARKS
REGINA         PTCLDY    30  28  93 SE10      29.83F
ESTEVAN        PTCLDY    30  28  93 SE5       29.87S
SWIFT CURRENT  CLEAR     36  32  87 S8        29.76F



USA.gov is the U.S. government's official web portal to all federal, state and local government web resources and services.